Location: Braden Valley Church
(38.0012°N, 88.6106°W)
Time: 06:38:34
(UTC+00:00)

OAO 2 Rocket - Pass Details

Date: 08 December 2021
Orbit: 676 x 745 km, 35.0° (Epoch: 16 January)

Event Time Altitude Azimuth Distance (km) Brightness Sun altitude
Exits shadow 12:04:45 - 247° (WSW) 2,752 5.9 -10.4°
Reaches altitude 10° 12:06:12 10° 244° (WSW) 2,210 5.5 -10.1°
Maximum altitude 12:11:15 53° 169° (SSE) 878 4.1 -9.2°
Drops below altitude 10° 12:16:12 10° 93° (E) 2,168 7.2 -8.3°
Sets 12:18:37 0° 88° (E) 3,075 8.0 -7.9°
